Volver al catálogo

CENTAURI-7

ActivoComunicacionesSSO
NORAD 62708·PAYLOAD·🇦🇺 Australia

Lanzado Jan 14, 2025 desde Vandenberg Space Force Base

Loading…

Próximos Pases (próximas 24 horas)

TLE

ActualizadoSource: Space-Track

Época: Sep 14, 2026, 03:58 UTC

1 62708U 25009DD  26257.16548882  .00003120  00000-0  26716-3 0  9994
2 62708  97.7031 336.3148 0001107 120.2314 239.9019 14.98290471 90784

Sigue CENTAURI-7 en tiempo real con AllMySat

Download on the App Store